Weather History for Hereford, TX

Change the Weather History Date:

Sunday, January 8, 2012

  Actual Average (KAMA) Record (KAMA)
Temperature  
Mean Temperature 34 °F 37 °F  
Max Temperature 44 °F 50 °F 80 °F (1909)
Min Temperature 23 °F 23 °F -6 °F (1912)
Degree Days  
Heating Degree Days 32 28  
Month to date heating degree days 230  
Since 1 July heating degree days 1947  
Cooling Degree Days 0 0  
Month to date cooling degree days 0  
Year to date cooling degree days 0  
Moisture  
Dew Point 22 °F    
Average Humidity 64    
Maximum Humidity 86    
Minimum Humidity 42    
Precipitation  
Precipitation 0.00 in 0.02 in 1.59 in (1939)
Month to date precipitation 0.16  
Year to date precipitation 0.16  
Snow  
Snow 0.00 in 0.10 in 5.20 in (1920)
Month to date snowfall 0.9  
Since 1 July snowfall 7.3  
Snow Depth -    
Sea Level Pressure  
Sea Level Pressure 30.10 in    
Wind  
Wind Speed 10 mph (NE)    
Max Wind Speed 20 mph    
Max Gust Speed 24 mph    
Visibility 10 miles    
Events      
T = Trace of Precipitation, MM = Missing Value Source: NWS Daily Summary

Daily Weather History Graph

Daily Weather History Graph

Search for Another Location

Airport:

Trip Planner

Search our weather history database for the weather conditions in past years. The results will help you decide how hot, cold, wet, or windy it might be!

Date:

Astronomy

Jan. 08, 2012 Rise Set
Actual Time 7:57 AM CST 5:54 PM CST
Civil Twilight 7:29 AM CST 6:22 PM CST
Nautical Twilight 6:58 AM CST 6:53 PM CST
Astronomical Twilight 6:27 AM CST 7:24 PM CST
Moon 5:39 PM CST (1/8) 7:17 AM CST (1/8)
Length of Visible Light 10h 52m
Length of Day
9h 56m
Full, 100% of the Moon is Illuminated
Jan 8
Full
Jan 9
Full
Jan 16
Last Quarter
Jan 23
New
Jan 30
First Quarter

Hourly Weather History & Observations

Time (CST) Temp. Windchill Dew Point Humidity Pressure Visibility Wind Dir Wind Speed Gust Speed Precip Events Conditions
12:15 AM 32.0 °F 23.6 °F 21.2 °F 64% 30.02 in 10.0 mi SSE 10.4 mph - N/A   Clear
12:35 AM 32.0 °F 24.2 °F 21.2 °F 64% 30.02 in 10.0 mi SSE 9.2 mph - N/A   Clear
12:55 AM 32.0 °F 24.8 °F 21.2 °F 64% 30.02 in 10.0 mi ESE 8.1 mph - N/A   Clear
1:15 AM 32.0 °F 25.6 °F 21.2 °F 64% 30.02 in 10.0 mi SE 6.9 mph - N/A   Mostly Cloudy
1:35 AM 32.0 °F 24.8 °F 21.2 °F 64% 30.01 in 10.0 mi SSE 8.1 mph - N/A   Overcast
1:55 AM 32.0 °F 26.4 °F 21.2 °F 64% 30.02 in 10.0 mi SE 5.8 mph - N/A   Scattered Clouds
2:15 AM 30.2 °F 24.3 °F 21.2 °F 69% 30.02 in 10.0 mi ESE 5.8 mph - N/A   Clear
2:35 AM 28.4 °F 22.2 °F 21.2 °F 74% 30.04 in 10.0 mi NE 5.8 mph - N/A   Clear
2:55 AM 28.4 °F 24.6 °F 21.2 °F 74% 30.04 in 10.0 mi NNE 3.5 mph - N/A   Clear
3:15 AM 26.6 °F 18.2 °F 19.4 °F 74% 30.04 in 10.0 mi North 8.1 mph - N/A   Scattered Clouds
3:35 AM 26.6 °F 21.2 °F 19.4 °F 74% 30.04 in 10.0 mi ENE 4.6 mph - N/A   Scattered Clouds
3:55 AM 26.6 °F 22.6 °F 19.4 °F 74% 30.04 in 10.0 mi NNE 3.5 mph - N/A   Clear
4:15 AM 24.8 °F 19.1 °F 19.4 °F 80% 30.05 in 10.0 mi North 4.6 mph - N/A   Clear
4:35 AM 23.0 °F 14.7 °F 19.4 °F 86% 30.05 in 10.0 mi NNE 6.9 mph - N/A   Clear
5:15 AM 23.0 °F 15.8 °F 19.4 °F 86% 30.05 in 10.0 mi North 5.8 mph - N/A   Clear
5:35 AM 24.8 °F 19.1 °F 19.4 °F 80% 30.05 in 10.0 mi NNE 4.6 mph - N/A   Clear
5:55 AM 23.0 °F 15.8 °F 19.4 °F 86% 30.06 in 10.0 mi NNE 5.8 mph - N/A   Clear
6:15 AM 24.8 °F 17.9 °F 19.4 °F 80% 30.07 in 10.0 mi NNE 5.8 mph - N/A   Clear
6:35 AM 26.6 °F 17.5 °F 21.2 °F 80% 30.08 in 10.0 mi North 9.2 mph - N/A   Clear
6:55 AM 26.6 °F 16.8 °F 21.2 °F 80% 30.09 in 10.0 mi NNE 10.4 mph - N/A   Clear
7:15 AM 28.4 °F 18.5 °F 23.0 °F 80% 30.09 in 10.0 mi NNE 11.5 mph - N/A   Scattered Clouds
7:35 AM 28.4 °F 18.5 °F 23.0 °F 80% 30.10 in 10.0 mi NNE 11.5 mph - N/A   Overcast
7:55 AM 28.4 °F 18.5 °F 23.0 °F 80% 30.11 in 10.0 mi NNE 11.5 mph - N/A   Overcast
8:15 AM 30.2 °F 20.8 °F 23.0 °F 75% 30.12 in 10.0 mi NNE 11.5 mph - N/A   Overcast
8:35 AM 30.2 °F 19.8 °F 23.0 °F 75% 30.12 in 10.0 mi NNE 13.8 mph - N/A   Overcast
8:55 AM 30.2 °F 20.2 °F 23.0 °F 75% 30.12 in 10.0 mi NE 12.7 mph - N/A   Overcast
9:15 AM 30.2 °F 20.2 °F 23.0 °F 75% 30.12 in 10.0 mi NE 12.7 mph - N/A   Overcast
9:35 AM 32.0 °F 22.5 °F 23.0 °F 69% 30.14 in 10.0 mi NNE 12.7 mph - N/A   Overcast
9:55 AM 32.0 °F 22.5 °F 23.0 °F 69% 30.15 in 10.0 mi NNE 12.7 mph - N/A   Overcast
10:15 AM 33.8 °F 24.3 °F 24.8 °F 70% 30.15 in 10.0 mi NNE 13.8 mph - N/A   Overcast
10:35 AM 33.8 °F 24.8 °F 24.8 °F 70% 30.16 in 10.0 mi NNE 12.7 mph - N/A   Mostly Cloudy
10:55 AM 35.6 °F 26.6 °F 24.8 °F 65% 30.15 in 10.0 mi NE 13.8 mph - N/A   Mostly Cloudy
11:15 AM 35.6 °F 25.9 °F 24.8 °F 65% 30.16 in 10.0 mi NNE 16.1 mph - N/A   Mostly Cloudy
11:35 AM 37.4 °F 28.2 °F 24.8 °F 60% 30.15 in 10.0 mi NNE 16.1 mph 20.7 mph N/A   Scattered Clouds
11:55 AM 37.4 °F 28.2 °F 24.8 °F 60% 30.14 in 10.0 mi NNE 16.1 mph - N/A   Clear
12:15 PM 39.2 °F 30.8 °F 24.8 °F 56% 30.14 in 10.0 mi NE 15.0 mph 21.9 mph N/A   Clear
12:35 PM 41.0 °F 33.9 °F 24.8 °F 53% 30.14 in 10.0 mi NE 12.7 mph - N/A   Scattered Clouds
12:55 PM 42.8 °F 35.8 °F 24.8 °F 49% 30.14 in 10.0 mi NNE 13.8 mph 17.3 mph N/A   Scattered Clouds
1:15 PM 42.8 °F 35.1 °F 24.8 °F 49% 30.13 in 10.0 mi NE 16.1 mph 20.7 mph N/A   Scattered Clouds
1:35 PM 42.8 °F 36.2 °F 24.8 °F 49% 30.12 in 10.0 mi ENE 12.7 mph - N/A   Mostly Cloudy
1:55 PM 44.6 °F 37.2 °F 24.8 °F 46% 30.12 in 10.0 mi NE 17.3 mph - N/A   Scattered Clouds
2:15 PM 44.6 °F 38.1 °F 24.8 °F 46% 30.11 in 10.0 mi NE 13.8 mph 20.7 mph N/A   Mostly Cloudy
2:35 PM 44.6 °F 36.9 °F 24.8 °F 46% 30.11 in 10.0 mi NE 18.4 mph 21.9 mph N/A   Mostly Cloudy
2:55 PM 44.6 °F 37.4 °F 24.8 °F 46% 30.11 in 10.0 mi NE 16.1 mph 20.7 mph N/A   Scattered Clouds
3:15 PM 44.6 °F 38.1 °F 24.8 °F 46% 30.12 in 10.0 mi ENE 13.8 mph 23.0 mph N/A   Clear
3:35 PM 44.6 °F 36.9 °F 23.0 °F 43% 30.12 in 10.0 mi NE 18.4 mph 23.0 mph N/A   Clear
3:55 PM 44.6 °F 37.8 °F 23.0 °F 43% 30.12 in 10.0 mi NE 15.0 mph 24.2 mph N/A   Clear
4:15 PM 44.6 °F 37.2 °F 23.0 °F 43% 30.13 in 10.0 mi NE 17.3 mph 21.9 mph N/A   Clear
4:35 PM 42.8 °F 34.8 °F 23.0 °F 46% 30.13 in 10.0 mi NE 17.3 mph - N/A   Clear
4:55 PM 42.8 °F 34.3 °F 23.0 °F 46% 30.13 in 10.0 mi NE 19.6 mph 23.0 mph N/A   Clear
5:15 PM 42.8 °F 34.8 °F 21.2 °F 42% 30.14 in 10.0 mi NE 17.3 mph 23.0 mph N/A   Clear
5:35 PM 41.0 °F 33.1 °F 21.2 °F 45% 30.15 in 10.0 mi NE 15.0 mph 19.6 mph N/A   Clear
5:55 PM 37.4 °F 29.8 °F 21.2 °F 52% 30.16 in 10.0 mi NE 11.5 mph - N/A   Clear
6:15 PM 35.6 °F 28.6 °F 21.2 °F 56% 30.17 in 10.0 mi NE 9.2 mph - N/A   Clear
6:35 PM 33.8 °F 27.0 °F 21.2 °F 60% 30.19 in 10.0 mi NNE 8.1 mph - N/A   Clear
6:55 PM 32.0 °F 24.8 °F 21.2 °F 64% 30.20 in 10.0 mi NNE 8.1 mph - N/A   Clear
7:15 PM 32.0 °F 26.4 °F 21.2 °F 64% 30.22 in 10.0 mi NE 5.8 mph - N/A   Clear
7:35 PM 32.0 °F 27.5 °F 21.2 °F 64% 30.23 in 10.0 mi NNE 4.6 mph - N/A   Scattered Clouds
7:55 PM 32.0 °F 24.2 °F 23.0 °F 69% 30.23 in 10.0 mi North 9.2 mph - N/A   Mostly Cloudy
8:15 PM 32.0 °F 23.6 °F 23.0 °F 69% 30.24 in 10.0 mi NNE 10.4 mph - N/A   Overcast
8:35 PM 32.0 °F 23.6 °F 23.0 °F 69% 30.24 in 10.0 mi NNE 10.4 mph - N/A   Mostly Cloudy
8:55 PM 32.0 °F 23.6 °F 23.0 °F 69% 30.25 in 10.0 mi NNE 10.4 mph - N/A   Mostly Cloudy
9:15 PM 32.0 °F 24.8 °F 23.0 °F 69% 30.25 in 10.0 mi NNE 8.1 mph - N/A   Mostly Cloudy
9:35 PM 30.2 °F 22.6 °F 23.0 °F 75% 30.25 in 10.0 mi NNE 8.1 mph - N/A   Clear
9:55 PM 30.2 °F 21.9 °F 23.0 °F 75% 30.26 in 10.0 mi NNE 9.2 mph - N/A   Clear
10:15 PM 30.2 °F 22.6 °F 23.0 °F 75% 30.26 in 10.0 mi NNE 8.1 mph - N/A   Clear
10:35 PM 30.2 °F 21.9 °F 23.0 °F 75% 30.26 in 10.0 mi NNE 9.2 mph - N/A   Clear
10:55 PM 28.4 °F 20.4 °F 23.0 °F 80% 30.26 in 10.0 mi North 8.1 mph - N/A   Clear
11:15 PM 26.6 °F 18.2 °F 21.2 °F 80% 30.26 in 10.0 mi North 8.1 mph - N/A   Clear
11:35 PM 26.6 °F 17.5 °F 23.0 °F 86% 30.26 in 10.0 mi North 9.2 mph - N/A   Clear
11:55 PM 26.6 °F 18.2 °F 23.0 °F 86% 30.24 in 10.0 mi North 8.1 mph - N/A   Clear